Location: Dalton
(34.7700°N, 84.9700°W)
Time: 15:31:40
(UTC-04:00)

Envisat - Pass Details

Date: 13 October 2017
Orbit: 764 x 766 km, 98.2° (Epoch: 21 October)

Event Time Altitude Azimuth Distance (km) Brightness Sun altitude
Exits shadow 20:56:59 24° 26° (NNE) 1,546 4.4 -23.3°
Drops below altitude 10° 20:59:21 10° 7° (N) 2,306 5.5 -23.8°
Sets 21:01:49 0° 358° (N) 3,236 6.3 -24.3°
